Simultaneous Nadir Overpasses (SNOs) Predictions

Prediction of SNOs between GOES-15 and METOP-A Satellite Orbit:

Table of predicted SNOs for the next 14.0 days since TLE Epoch: 3/14/2015
Index Date Time (GOES-15) GOES-15 Lat,Lon METOP-A Lat,Lon Distance(km) Time Diff (sec)
1 03/14/2015 06:37:36 -0.04,-135.17 -0.30,-136.41 140.49 80
2 03/15/2015 06:14:17 -0.04,-135.14 0.81,-131.41 425.38 80
3 03/16/2015 18:33:08 0.04,-135.15 0.20,-135.98 93.81 80
4 03/17/2015 18:15:08 0.04,-135.12 -0.86,-130.97 472.09 80
5 03/19/2015 06:34:08 -0.04,-135.02 -0.18,-135.57 62.71 80
6 03/21/2015 18:29:40 0.04,-134.98 0.07,-135.14 17.66 80
7 03/24/2015 06:27:59 -0.04,-134.84 -0.03,-134.73 12.36 80
8 03/26/2015 18:28:51 0.03,-134.78 -0.09,-134.30 55.16 80




NCC Satellite Simultaneous Nadir Overpasses (SNOs) Prediction Service
